Precipitable_Water
0.90 0.85 0.93 1.11 1.16 1.16 1.13 1.09 1.06 1.02 0.96 0.98 1.03 1.04 1.01 1.05 1.08 1.11 1.13 1.18 1.19 1.25 1.20 1.18 1.20 1.13 1.02 0.94 0.87 0.83 0.70 0.61
0.85 0.89 0.90 0.89 0.93 1.04 1.07 1.07 1.11 1.15 1.13 1.06 0.98 0.88 0.87 0.95 1.00 1.08 1.17 1.24 1.23 1.24 1.27 1.27 1.18 1.05 0.97 0.95 0.89 0.78 0.71 0.64
0.79 0.81 0.85 0.82 0.79 0.84 0.96 1.01 1.14 1.10 0.99 0.91 0.83 0.79 0.82 0.88 0.99 1.12 1.19 1.23 1.24 1.23 1.25 1.17 1.16 1.06 1.01 0.94 0.87 0.80 0.76 0.69
0.73 0.78 0.77 0.78 0.77 0.82 0.85 1.01 1.06 1.01 0.97 0.97 0.90 0.88 0.86 0.85 1.04 1.09 1.11 1.20 1.25 1.21 1.19 1.19 1.20 1.16 1.04 1.01 0.95 0.87 0.75 0.75
0.74 0.76 0.78 0.78 0.74 0.83 0.94 0.98 1.05 1.04 1.04 1.01 0.88 0.81 0.77 0.88 0.99 1.14 1.13 1.13 1.20 1.21 1.24 1.26 1.23 1.20 1.16 1.08 1.02 0.97 0.89 0.77
0.74 0.75 0.79 0.83 0.86 0.88 0.91 0.96 0.99 1.02 1.04 1.11 1.00 0.88 0.90 0.91 1.02 1.15 1.21 1.19 1.23 1.25 1.26 1.24 1.23 1.24 1.21 1.16 1.07 1.02 0.98 0.87
0.77 0.80 0.82 0.87 0.93 0.93 0.97 0.95 0.98 1.05 1.14 1.07 1.10 1.04 1.02 1.06 1.15 1.17 1.24 1.26 1.22 1.30 1.29 1.28 1.30 1.26 1.19 1.17 1.14 1.07 0.99 0.93
0.81 0.82 0.81 0.81 0.85 0.91 0.94 0.95 0.91 1.04 1.14 1.13 1.11 1.12 1.09 1.07 1.11 1.15 1.20 1.22 1.18 1.19 1.21 1.23 1.25 1.25 1.24 1.20 1.12 1.08 1.03 0.93
0.78 0.82 0.88 0.86 0.84 0.90 0.93 0.92 0.92 1.01 1.09 1.14 1.18 1.14 1.19 1.14 1.15 1.20 1.19 1.20 1.14 1.17 1.17 1.19 1.22 1.23 1.22 1.19 1.16 1.08 1.04 0.95
0.70 0.81 0.86 0.88 0.91 0.90 0.93 0.94 0.96 1.00 1.07 1.12 1.15 1.20 1.19 1.18 1.21 1.21 1.19 1.17 1.13 1.16 1.16 1.20 1.20 1.19 1.18 1.15 1.10 1.04 1.02 0.94
0.61 0.72 0.85 0.91 0.93 0.97 0.99 1.00 1.01 1.04 1.07 1.10 1.13 1.19 1.24 1.26 1.23 1.20 1.19 1.17 1.15 1.21 1.13 1.12 1.13 1.15 1.14 1.11 1.05 1.01 0.96 0.95
0.53 0.66 0.78 0.95 1.00 1.06 1.13 1.07 1.10 1.12 1.12 1.12 1.14 1.20 1.22 1.24 1.21 1.18 1.18 1.17 1.19 1.14 1.07 1.07 1.05 1.02 1.03 1.02 0.99 0.95 0.92 0.91
0.54 0.51 0.60 0.74 0.93 1.06 1.11 1.13 1.12 1.15 1.16 1.19 1.21 1.27 1.27 1.26 1.22 1.22 1.20 1.19 1.18 1.06 1.02 1.01 0.96 0.92 0.91 0.87 0.83 0.80 0.80 0.76
0.56 0.59 0.53 0.53 0.65 0.83 1.00 1.12 1.12 1.11 1.16 1.22 1.22 1.19 1.15 1.14 1.13 1.13 1.14 1.10 1.05 1.01 0.99 0.95 0.90 0.86 0.85 0.80 0.76 0.71 0.73 0.73
0.49 0.60 0.65 0.61 0.61 0.67 0.81 0.94 1.00 1.05 1.07 1.07 1.07 1.13 1.09 1.06 1.08 1.09 1.06 1.04 1.04 1.00 0.97 0.91 0.88 0.83 0.80 0.73 0.72 0.72 0.70 0.70
0.48 0.51 0.71 0.79 0.76 0.79 0.82 0.84 0.87 0.91 0.89 0.92 0.96 1.00 1.00 1.05 1.07 1.05 1.05 1.03 0.99 0.95 0.89 0.84 0.79 0.77 0.73 0.72 0.70 0.68 0.67 0.63
0.53 0.50 0.73 0.87 0.89 0.85 0.89 0.88 0.91 0.92 0.92 0.92 0.95 0.98 1.01 1.01 1.02 0.99 0.98 0.96 0.91 0.84 0.79 0.75 0.71 0.71 0.70 0.67 0.64 0.59 0.55 0.49
0.57 0.58 0.81 0.85 0.85 0.81 0.77 0.82 0.89 0.90 0.91 0.93 0.96 0.98 0.97 0.95 0.95 0.91 0.87 0.82 0.78 0.70 0.67 0.67 0.65 0.63 0.63 0.62 0.57 0.48 0.39 0.35
0.47 0.63 0.75 0.77 0.79 0.78 0.76 0.79 0.83 0.87 0.89 0.89 0.89 0.89 0.87 0.82 0.77 0.74 0.69 0.65 0.63 0.63 0.64 0.64 0.63 0.58 0.56 0.51 0.44 0.39 0.35 0.34
Wind_Speed
6 8 10 13 14 17 19 18 17 17 16 15 14 14 14 15 15 16 16 16 16 15 14 15 15 14 14 14 14 14 14 15
7 9 11 13 15 16 17 17 16 14 14 13 13 13 14 14 15 16 16 16 16 16 16 16 17 16 16 15 16 16 16 16
8 10 12 14 15 15 15 14 14 13 13 13 13 13 13 13 14 15 15 16 17 18 18 18 19 18 18 17 18 18 19 19
10 12 13 14 15 14 14 14 13 13 13 12 12 12 12 13 14 15 16 17 18 19 20 20 20 21 21 21 21 22 22 21
10 12 13 13 14 14 14 13 14 12 13 13 13 12 13 13 14 15 16 18 19 20 21 22 22 23 24 25 25 26 26 25
12 12 13 14 14 15 14 14 14 14 13 13 13 13 14 15 16 16 16 18 20 22 23 23 24 24 26 27 28 28 27 27
13 13 13 14 15 16 16 16 16 15 16 16 14 15 15 15 16 17 18 18 20 22 25 25 27 28 29 29 30 29 28 27
15 16 16 16 17 17 17 18 18 18 17 17 18 17 18 18 18 18 18 18 20 21 21 25 29 30 31 31 30 32 28 28
17 17 19 18 19 20 20 20 20 20 20 19 19 20 19 19 20 19 21 21 21 23 24 26 28 29 31 31 33 31 30 30
17 20 20 20 20 21 22 21 22 22 22 22 21 21 22 22 22 22 22 21 22 23 25 27 28 28 30 31 27 29 31 31
14 18 20 21 20 21 22 23 23 23 23 23 24 24 23 24 23 24 23 23 23 25 25 26 26 27 28 27 28 28 30 32
10 12 15 21 21 21 23 22 24 24 25 25 25 25 25 25 25 25 25 25 26 25 25 25 26 27 25 26 27 27 30 31
9 10 12 15 18 19 20 22 22 24 26 27 27 27 26 26 26 26 26 26 26 25 25 25 26 25 25 25 29 30 32 34
12 11 12 14 15 17 18 19 21 22 24 23 23 24 23 24 25 25 25 25 25 25 25 25 25 25 25 27 28 29 32 34
13 13 13 12 13 15 16 17 18 19 19 21 21 22 22 23 23 23 23 24 24 25 25 25 25 25 26 27 29 31 32 34
13 13 14 13 12 12 13 14 16 17 17 18 19 20 21 21 21 21 23 23 24 24 25 25 25 26 28 29 30 32 33 35
13 15 15 15 14 14 15 16 17 18 18 18 20 20 21 21 22 22 22 22 23 24 24 24 26 28 29 30 32 33 34 36
17 17 15 17 16 17 17 18 19 19 19 19 20 20 21 22 22 22 22 23 23 23 24 26 28 29 30 30 32 34 36 37
17 17 18 18 19 19 19 20 19 19 20 20 21 21 20 20 21 21 22 22 23 25 26 27 28 28 29 31 34 36 36 38
Wind_Direction
156 138 131 142 145 145 147 147 153 155 156 164 172 184 186 190 194 196 201 208 214 222 230 235 233 239 246 253 258 264 269 274
165 161 154 152 151 155 156 157 160 168 175 178 181 182 193 198 203 210 216 220 224 231 239 239 237 244 251 256 260 265 270 275
164 163 163 165 163 166 167 170 174 178 182 188 193 199 205 210 215 217 224 229 235 241 243 244 245 249 254 260 263 267 270 275
173 172 173 174 180 182 184 185 184 189 195 198 202 209 215 220 222 231 237 240 243 246 248 248 251 254 258 263 265 267 269 273
183 181 184 186 189 192 196 193 195 201 204 208 213 219 226 230 234 241 245 246 249 251 252 251 255 259 262 265 268 268 269 272
196 197 199 202 202 205 206 209 213 216 216 222 223 232 237 241 243 243 250 254 255 255 255 256 259 264 267 267 266 266 268 270
216 212 212 215 215 217 217 221 224 226 224 230 237 238 244 245 245 250 256 260 261 259 259 260 261 267 271 269 267 265 266 270
221 220 222 223 224 223 224 226 230 231 231 237 241 246 246 251 253 254 259 264 266 271 269 268 268 270 271 270 267 260 266 271
231 232 229 230 228 227 230 232 235 237 239 242 245 247 251 254 257 262 262 269 269 273 274 273 275 276 275 271 268 265 264 275
241 235 236 233 232 232 233 237 238 241 243 245 249 251 253 255 259 262 264 272 274 275 278 279 279 281 281 269 274 262 264 278
255 241 236 234 236 236 236 238 242 244 247 247 251 253 255 257 260 263 266 273 277 279 281 281 281 282 280 276 272 276 273 278
260 250 242 236 240 240 238 241 244 249 250 250 251 254 257 259 262 266 270 273 278 280 282 281 283 284 281 277 277 279 279 278
256 255 248 245 240 242 240 245 249 254 253 250 252 256 258 261 265 268 271 273 278 281 281 282 283 283 282 281 281 283 282 285
253 254 253 250 247 247 245 247 253 256 254 252 255 259 259 263 266 268 270 272 277 280 282 282 282 284 282 286 286 286 287 289
253 251 250 249 249 249 249 255 258 258 256 256 257 262 265 266 266 268 270 274 277 280 281 283 283 284 286 288 289 290 291 292
259 256 248 245 248 252 256 257 256 256 257 258 261 262 267 267 267 270 274 275 278 280 281 282 284 285 288 290 291 293 294 295
264 261 249 246 254 259 261 262 261 261 259 261 263 266 268 268 270 273 273 276 278 280 281 283 286 288 289 291 293 296 297 298
262 261 250 257 259 263 265 265 263 262 262 263 265 266 268 270 270 271 274 276 279 280 283 286 288 290 291 293 295 297 299 299
262 255 254 258 262 266 267 263 260 259 261 263 266 267 267 268 270 273 275 276 279 282 285 287 290 292 294 296 297 298 300 301